#timestamp,LO_Frequency,Hit,StdDev 
1504929615.1,286046998.7,N,1.3
1504929616.0,286046998.7,N,1.3
1504929635.8,286046999.3,N,1.3
1504929655.7,286046999.1,N,1.3
1504929675.5,286046997.0,N,1.4
1504929695.3,286046998.7,N,1.4
1504929715.2,286046998.8,N,1.4
1504929735.0,286046998.9,N,1.4
1504929735.9,286046998.9,N,1.4
1504929755.7,286046998.1,N,1.4
1504929775.6,286047000.9,N,1.4
1504929795.4,286047000.6,N,1.4
1504929815.3,286047000.5,N,1.4
1504929835.1,286047001.2,N,1.4
1504929855.8,286046998.1,N,1.4
1504929875.7,286047000.6,N,1.4
1504929895.5,286046999.9,N,1.4
1504929915.4,286046999.9,N,1.4
1504929935.2,286047001.7,N,1.4
1504929955.0,286047000.2,N,1.4
1504929955.9,286047000.2,N,1.4
1504929975.8,286047000.4,N,1.4
1504929995.6,286046998.7,N,1.3
1504930015.4,286047000.5,N,1.3
1504930035.3,286047000.6,N,1.3
1504930055.1,286047000.0,N,1.3
1504930075.9,286046998.1,N,1.2
1504930095.7,286046999.8,N,1.2
1504930115.5,286047002.5,N,1.2
1504930135.4,286047002.7,N,1.3
1504930155.2,286047002.4,N,1.4
1504930175.1,286047002.3,N,1.4
1504930176.0,286047002.3,N,1.5
1504930195.8,286047000.1,N,1.5
1504930215.6,286047002.5,N,1.4
1504930235.5,286046999.8,N,1.4
1504930255.3,286047001.8,N,1.3
1504930275.1,286047001.5,N,1.3
1504930295.9,286047001.8,N,1.3
1504930315.7,286047001.4,N,1.2
1504930335.6,286047001.6,N,1.2
1504930355.4,286047002.5,N,1.3
1504930375.2,286047001.3,N,1.3
1504930395.1,286047004.1,Y,0.0
1504930396.0,286047004.1,P,1.6
1504930415.8,286047001.3,N,1.4
1504930435.7,286047002.5,N,1.3
1504930455.5,286047002.1,N,1.1
1504930475.3,286047002.1,N,1.0
1504930495.2,286047002.7,N,1.0
1504930515.0,286047001.8,N,0.9
1504930515.9,286047001.8,N,0.9
1504930535.8,286047001.6,N,0.8
1504930555.6,286047002.0,N,0.8
1504930575.4,286047002.0,N,0.8
1504930595.3,286047002.1,N,0.7
1504930615.1,286047002.6,Y,0.0
1504930635.8,286046999.0,P,1.5
1504930655.7,286046999.1,N,1.4
1504930675.5,286046997.1,N,1.8
1504930695.4,286046999.6,N,1.6
1504930715.2,286046996.5,N,1.8
1504930735.0,286046997.4,N,1.8
1504930735.9,286046997.4,N,1.7
1504930755.8,286046997.9,N,1.6
1504930775.6,286046995.4,N,1.8
1504930795.5,286046995.5,N,1.9
1504930815.3,286046993.3,Y,0.0
1504930835.1,286046997.0,P,0.5
1504930855.9,286046997.5,P,0.4
1504930875.7,286046997.4,P,0.3
1504930895.6,286046997.9,Y,0.0
1504930915.4,286046998.4,P,0.5
1504930965.3,286046996.5,E,nan
1504930975.2,286047000.9,N,0.0
1504930995.0,286047002.7,P,0.9
1504930995.9,286047002.7,N,0.8
1504931015.8,286047000.9,N,0.9
1504931035.6,286046999.0,N,1.4
1504931055.5,286046999.6,N,1.4
1504931075.3,286046996.7,N,2.0
1504931095.1,286046999.1,N,1.9
1504931115.9,286047000.7,N,1.8
1504931135.7,286046998.4,N,1.8
1504931155.5,286046998.9,N,1.7
1504931175.4,286046998.7,N,1.7
1504931195.2,286046998.7,N,1.7
1504931215.1,286046999.1,N,1.6
1504931216.0,286046999.1,N,1.6
1504931235.8,286046996.7,N,1.7
1504931255.6,286046997.0,N,1.7
1504931275.5,286046996.6,N,1.8
1504931295.3,286046996.7,N,1.8
1504931315.2,286046996.9,N,1.8
1504931335.9,286046997.5,N,1.8
1504931355.7,286046996.8,N,1.8
1504931375.6,286046997.8,N,1.8
1504931395.4,286046994.9,N,1.9
1504931415.2,286046994.9,N,2.0
1504931435.1,286046995.1,N,2.1
1504931436.0,286046995.1,N,2.1
1504931455.8,286046998.0,N,2.1
1504931475.7,286046997.7,N,2.1
1504931495.5,286046994.9,N,2.1
1504931515.3,286046995.4,N,2.1
1504931535.2,286046994.9,N,2.0
1504931555.0,286046995.2,N,1.8
1504931555.9,286046995.2,N,1.7
1504931575.8,286046996.3,N,1.7
1504931595.6,286046995.7,N,1.6
1504931615.4,286046993.3,Y,0.0
1504931635.3,286046999.6,P,1.3
1504931655.1,286046996.7,N,1.3
1504931675.9,286046999.5,N,1.4
1504931695.7,286047001.2,N,1.7
1504931715.5,286046998.1,N,1.6
1504931735.4,286046998.3,N,1.5
1504931755.2,286046998.5,N,1.4
1504931775.0,286046998.8,N,1.3
1504931775.9,286046998.8,N,1.2
1504931795.8,286046998.7,N,1.2
1504931815.6,286046998.9,N,1.1
1504931835.5,286046998.6,N,1.1
1504931855.3,286046999.3,N,1.1
1504931875.1,286046999.4,N,1.0
1504931895.9,286046998.7,N,1.0
1504931915.7,286046998.2,N,1.0
1504931935.6,286046999.2,N,1.0
1504931955.4,286046997.8,N,1.0
1504931975.2,286046997.7,N,1.0
1504931995.1,286046997.9,N,1.0
1504931996.0,286046997.9,N,0.9
1504932015.8,286046995.3,Y,0.0
1504932035.7,286046998.9,P,0.2
1504932055.5,286046999.0,P,0.2
1504932075.3,286046996.8,P,0.9
1504932095.2,286046997.3,Y,0.0
1504932115.0,286046999.1,P,0.4
1504932115.9,286046999.1,N,0.4
1504932135.8,286046998.1,P,0.5
1504932155.6,286046998.8,N,0.4
1504932175.4,286047001.0,N,0.9
1504932195.3,286047001.1,N,1.1
1504932215.1,286047001.1,N,1.2
1504932235.9,286047001.1,N,1.2
1504932255.7,286046998.1,N,1.3
1504932275.5,286046998.2,N,1.3
1504932295.4,286046998.4,N,1.2
1504932315.2,286046998.4,N,1.2
1504932335.0,286047001.2,N,1.3
1504932336.0,286047001.2,N,1.3
1504932355.8,286047000.7,N,1.3
1504932375.6,286046998.2,N,1.3
1504932395.5,286046999.3,N,1.3
1504932415.3,286046999.1,N,1.2
1504932435.1,286046996.6,N,1.4
1504932455.9,286046996.5,N,1.5
1504932475.7,286046996.8,N,1.5
1504932495.6,286046997.8,N,1.5
1504932515.4,286046997.1,N,1.5
1504932535.2,286046996.5,N,1.6
1504932555.1,286046996.7,N,1.6
1504932556.0,286046996.7,N,1.6
1504932575.8,286046999.1,N,1.6
1504932595.7,286046998.7,N,1.6
1504932615.5,286046998.3,N,1.5
1504932635.3,286047001.1,N,1.6
1504932655.2,286047001.2,N,1.6
1504932675.0,286047000.8,N,1.7
1504932675.9,286047000.8,N,1.7
1504932695.7,286047000.4,N,1.7
1504932715.6,286682705.9,Y,0.0
1504932735.4,286047002.1,P,1.5
1504932755.3,286047002.2,N,1.5
1504932775.1,286046999.8,N,1.4
1504932795.8,286047002.6,N,1.4
1504932815.7,286047001.1,N,1.3
1504932835.5,286047000.8,N,1.2
1504932855.4,286046999.7,N,1.2
1504932875.2,286047000.7,N,1.2
1504932895.0,286047000.9,N,1.1
1504932895.9,286047000.9,N,1.0
1504932915.8,286046999.8,N,1.0
1504932935.6,286047002.6,N,1.1
1504932955.5,286047002.1,N,1.1
1504932975.3,286047001.5,N,1.1
1504932995.1,286047004.0,Y,0.0
1504933015.9,286047001.6,P,0.3
1504933035.7,286047001.3,P,0.2
1504933055.6,286047001.7,P,0.3
1504933075.4,286047004.1,Y,0.0
1504933095.2,286047001.9,P,0.2
1504933115.1,286047002.6,P,0.5
1504933116.0,286047002.6,P,0.5
1504933135.8,286047001.5,N,0.5
1504933155.6,286047001.5,N,0.5
1504933175.5,286047002.4,Y,0.0
1504933195.3,286046998.2,P,1.9
